Find Starlink 30765

NORAD ID: 58119 Int'l Des: 2023-162 Owner: SPXS Country: US Constellation: starlink operational
LEOCIRCULAR

当前视图

正在加载3D地球...

About Starlink 30765

Starlink 30765 (NORAD 58119) is a starlink constellation satellite (v2 mini) launched Oct 22, 2023 by SPXS of US. It operates in LEO, CIRCULAR orbit with a mass of 730.00 kg.

即将过境

Passes for default location (London). Set your location on the main map for personalized predictions.

高度历史

Loading altitude history...

两行轨道根数

1 58119U 23162B 26237.35159228 .00000451 00000-0 25930-4 0 9996
2 58119 43.0007 259.8106 0001402 271.7828 88.2863 15.27578102158101
Epoch: Aug 25, 2026 • Age: 17 hours

当前状态

高度 487.6 km
远地点 / 近地点 N/A
速度 7.62 km/s
星下点 -21.66°S, 110.8°E
发射日期 Oct 22, 2023
运行时间 2.8 years
类型 internet

技术详情

分类 Payload
质量 730.00 kg
干质量 700.00 kg
总质量 730.00 kg
长度 0.30 m
直径 4.10 m
跨度 29.00 m
形状 Box + pan
制造商 SPXS
平台类型 Starlink V2M
阶段状态 In Orbit
所有者/国家 SPXS/US

Most Searched